Time,TemperatureF,DewpointF,PressureIn,WindDirection,WindDirectionDegrees,WindSpeedMPH,WindSpeedGustMPH,Humidity,HourlyPrecipIn,Conditions,Clouds,dailyrainin,SolarRadiationWatts/m^2,SoftwareType,DateUTC
2013-03-16 00:02:00,39.0,27.0,-100.00,NNE,30,10.0,19.0,63,0.00,,,0.00,0.000000,,2013-03-16 06:02:00,
2013-03-16 00:12:00,39.0,27.0,-100.00,NNE,30,10.0,19.0,63,0.00,,,0.00,0.000000,,2013-03-16 06:12:00,
2013-03-16 00:32:00,33.0,27.0,-100.00,NNE,28,7.0,17.0,77,0.00,,,0.00,0.000000,,2013-03-16 06:32:00,
2013-03-16 00:42:00,33.0,27.0,-100.00,NNE,28,7.0,17.0,77,0.00,,,0.00,0.000000,,2013-03-16 06:42:00,
2013-03-16 00:52:00,33.0,27.0,-100.00,NNE,28,7.0,17.0,77,0.00,,,0.00,0.000000,,2013-03-16 06:52:00,
2013-03-16 01:02:00,33.0,27.0,-100.00,NNE,28,7.0,17.0,77,0.00,,,0.00,0.000000,,2013-03-16 07:02:00,
2013-03-16 01:12:00,33.0,27.0,-100.00,NNE,28,7.0,17.0,77,0.00,,,0.00,0.000000,,2013-03-16 07:12:00,
2013-03-16 01:42:00,32.0,27.0,-100.00,NE,45,4.0,11.0,80,0.00,,,0.00,0.000000,,2013-03-16 07:42:00,
2013-03-16 01:52:00,32.0,27.0,-100.00,NE,45,4.0,11.0,80,0.00,,,0.00,0.000000,,2013-03-16 07:52:00,
2013-03-16 02:02:00,32.0,27.0,-100.00,NE,45,4.0,11.0,80,0.00,,,0.00,0.000000,,2013-03-16 08:02:00,
2013-03-16 02:12:00,32.0,27.0,-100.00,NE,45,4.0,11.0,80,0.00,,,0.00,0.000000,,2013-03-16 08:12:00,
2013-03-16 02:42:00,31.0,26.0,-100.00,ENE,76,3.0,6.0,82,0.00,,,0.00,0.000000,,2013-03-16 08:42:00,
2013-03-16 02:52:00,31.0,26.0,-100.00,ENE,76,3.0,6.0,82,0.00,,,0.00,0.000000,,2013-03-16 08:52:00,
2013-03-16 03:02:00,31.0,26.0,-100.00,ENE,76,3.0,6.0,82,0.00,,,0.00,0.000000,,2013-03-16 09:02:00,
2013-03-16 03:12:00,31.0,26.0,-100.00,ENE,76,3.0,6.0,82,0.00,,,0.00,0.000000,,2013-03-16 09:12:00,
2013-03-16 03:43:00,29.0,23.0,-100.00,ESE,104,4.0,7.0,78,0.00,,,-99.99,0.000000,,2013-03-16 09:43:00,
2013-03-16 03:53:00,29.0,23.0,-100.00,ESE,104,4.0,7.0,78,0.00,,,-99.99,0.000000,,2013-03-16 09:53:00,
2013-03-16 04:03:00,29.0,23.0,-100.00,ESE,104,4.0,7.0,78,0.00,,,-99.99,0.000000,,2013-03-16 10:03:00,
2013-03-16 04:12:00,29.0,23.0,-100.00,ESE,104,4.0,7.0,78,0.00,,,-99.99,0.000000,,2013-03-16 10:12:00,
2013-03-16 04:42:00,27.0,23.0,-100.00,East,81,1.0,4.0,83,0.00,,,0.00,0.000000,,2013-03-16 10:42:00,
2013-03-16 04:53:00,27.0,23.0,-100.00,East,81,1.0,4.0,83,0.00,,,0.00,0.000000,,2013-03-16 10:53:00,
2013-03-16 05:03:00,27.0,23.0,-100.00,East,81,1.0,4.0,83,0.00,,,0.00,0.000000,,2013-03-16 11:03:00,
2013-03-16 05:12:00,27.0,23.0,-100.00,East,81,1.0,4.0,83,0.00,,,0.00,0.000000,,2013-03-16 11:12:00,
2013-03-16 05:43:00,25.0,21.0,-100.00,SSW,208,1.0,3.0,85,0.00,,,0.00,0.000000,,2013-03-16 11:43:00,
2013-03-16 05:53:00,25.0,21.0,-100.00,SSW,208,1.0,3.0,85,0.00,,,0.00,0.000000,,2013-03-16 11:53:00,
2013-03-16 06:02:00,25.0,21.0,-100.00,SSW,208,1.0,3.0,85,0.00,,,0.00,0.000000,,2013-03-16 12:02:00,
2013-03-16 06:12:00,25.0,21.0,-100.00,SSW,208,1.0,3.0,85,0.00,,,0.00,0.000000,,2013-03-16 12:12:00,
2013-03-16 06:43:00,27.0,24.0,-100.00,SSE,157,0.0,3.0,90,0.00,,,0.00,0.000000,,2013-03-16 12:43:00,
2013-03-16 06:53:00,27.0,24.0,-100.00,SSE,157,0.0,3.0,90,0.00,,,0.00,0.000000,,2013-03-16 12:53:00,
2013-03-16 07:02:00,27.0,24.0,-100.00,SSE,157,0.0,3.0,90,0.00,,,0.00,0.000000,,2013-03-16 13:02:00,
2013-03-16 07:12:00,27.0,24.0,-100.00,SSE,157,0.0,3.0,90,0.00,,,0.00,0.000000,,2013-03-16 13:12:00,
2013-03-16 07:42:00,27.0,24.0,-100.00,East,90,3.0,5.0,87,0.00,,,0.00,1.000000,,2013-03-16 13:42:00,
2013-03-16 07:53:00,27.0,24.0,-100.00,East,90,3.0,5.0,87,0.00,,,0.00,1.000000,,2013-03-16 13:53:00,
2013-03-16 08:02:00,27.0,24.0,-100.00,East,90,3.0,5.0,87,0.00,,,0.00,1.000000,,2013-03-16 14:02:00,
2013-03-16 08:12:00,27.0,24.0,-100.00,East,90,3.0,5.0,87,0.00,,,0.00,1.000000,,2013-03-16 14:12:00,
2013-03-16 08:42:00,27.0,23.0,-100.00,SSE,149,7.0,10.0,86,0.00,,,0.00,41.000000,,2013-03-16 14:42:00,
2013-03-16 08:52:00,27.0,23.0,-100.00,SSE,149,7.0,10.0,86,0.00,,,0.00,41.000000,,2013-03-16 14:52:00,
2013-03-16 09:02:00,27.0,23.0,-100.00,SSE,149,7.0,10.0,86,0.00,,,0.00,41.000000,,2013-03-16 15:02:00,
2013-03-16 09:12:00,27.0,23.0,-100.00,SSE,149,7.0,10.0,86,0.00,,,0.00,41.000000,,2013-03-16 15:12:00,
2013-03-16 09:44:00,28.0,24.0,-100.00,SSE,147,7.0,11.0,84,0.00,,,0.00,60.000000,,2013-03-16 15:44:00,
2013-03-16 09:53:00,28.0,24.0,-100.00,SSE,147,7.0,11.0,84,0.00,,,0.00,60.000000,,2013-03-16 15:53:00,
2013-03-16 10:03:00,28.0,24.0,-100.00,SSE,147,7.0,11.0,84,0.00,,,0.00,60.000000,,2013-03-16 16:03:00,
2013-03-16 10:12:00,28.0,24.0,-100.00,SSE,147,7.0,11.0,84,0.00,,,0.00,60.000000,,2013-03-16 16:12:00,
2013-03-16 10:43:00,29.0,24.0,-100.00,SSE,156,4.0,10.0,82,0.00,,,0.00,83.000000,,2013-03-16 16:43:00,
2013-03-16 10:53:00,29.0,24.0,-100.00,SSE,156,4.0,10.0,82,0.00,,,0.00,83.000000,,2013-03-16 16:53:00,
2013-03-16 11:03:00,29.0,24.0,-100.00,SSE,156,4.0,10.0,82,0.00,,,0.00,83.000000,,2013-03-16 17:03:00,
2013-03-16 11:12:00,29.0,24.0,-100.00,SSE,156,4.0,10.0,82,0.00,,,0.00,83.000000,,2013-03-16 17:12:00,
2013-03-16 11:43:00,29.0,27.0,-100.00,SSE,151,5.0,8.0,92,0.00,,,0.00,111.000000,,2013-03-16 17:43:00,
2013-03-16 11:53:00,29.0,27.0,-100.00,SSE,151,5.0,8.0,92,0.00,,,0.00,111.000000,,2013-03-16 17:53:00,
2013-03-16 12:02:00,29.0,27.0,-100.00,SSE,151,5.0,8.0,92,0.00,,,0.00,111.000000,,2013-03-16 18:02:00,
2013-03-16 12:13:00,29.0,27.0,-100.00,SSE,151,5.0,8.0,92,0.00,,,0.00,111.000000,,2013-03-16 18:13:00,
2013-03-16 12:43:00,29.0,27.0,-100.00,SE,142,5.0,9.0,91,0.00,,,0.00,120.000000,,2013-03-16 18:43:00,
2013-03-16 12:53:00,29.0,27.0,-100.00,SE,142,5.0,9.0,91,0.00,,,0.00,120.000000,,2013-03-16 18:53:00,
2013-03-16 13:02:00,29.0,27.0,-100.00,SE,142,5.0,9.0,91,0.00,,,0.00,120.000000,,2013-03-16 19:02:00,
2013-03-16 13:12:00,29.0,27.0,-100.00,SE,142,5.0,9.0,91,0.00,,,0.00,120.000000,,2013-03-16 19:12:00,
2013-03-16 13:42:00,29.0,27.0,-100.00,SE,137,5.0,7.0,91,0.00,,,0.00,96.000000,,2013-03-16 19:42:00,
2013-03-16 13:53:00,29.0,27.0,-100.00,SE,137,5.0,7.0,91,0.00,,,0.00,96.000000,,2013-03-16 19:53:00,
2013-03-16 14:02:00,29.0,27.0,-100.00,SE,137,5.0,7.0,91,0.00,,,0.00,96.000000,,2013-03-16 20:02:00,
2013-03-16 14:12:00,29.0,27.0,-100.00,SE,137,5.0,7.0,91,0.00,,,0.00,96.000000,,2013-03-16 20:12:00,
2013-03-16 14:42:00,29.0,27.0,-100.00,SSE,148,6.0,8.0,91,0.00,,,0.00,160.000000,,2013-03-16 20:42:00,
2013-03-16 14:52:00,29.0,27.0,-100.00,SSE,148,6.0,8.0,91,0.00,,,0.00,160.000000,,2013-03-16 20:52:00,
2013-03-16 15:02:00,29.0,27.0,-100.00,SSE,148,6.0,8.0,91,0.00,,,0.00,160.000000,,2013-03-16 21:02:00,
2013-03-16 15:12:00,29.0,27.0,-100.00,SSE,148,6.0,8.0,91,0.00,,,0.00,160.000000,,2013-03-16 21:12:00,
2013-03-16 15:43:00,30.0,28.0,-100.00,SE,130,4.0,9.0,91,0.00,,,0.00,161.000000,,2013-03-16 21:43:00,
2013-03-16 15:53:00,30.0,28.0,-100.00,SE,130,4.0,9.0,91,0.00,,,0.00,161.000000,,2013-03-16 21:53:00,
2013-03-16 16:03:00,30.0,28.0,-100.00,SE,130,4.0,9.0,91,0.00,,,0.00,161.000000,,2013-03-16 22:03:00,
2013-03-16 16:12:00,30.0,28.0,-100.00,SE,130,4.0,9.0,91,0.00,,,0.00,161.000000,,2013-03-16 22:12:00,
2013-03-16 16:42:00,29.0,27.0,-100.00,SSE,152,3.0,6.0,93,0.00,,,0.00,99.000000,,2013-03-16 22:42:00,
2013-03-16 16:53:00,29.0,27.0,-100.00,SSE,152,3.0,6.0,93,0.00,,,0.00,99.000000,,2013-03-16 22:53:00,
2013-03-16 17:02:00,29.0,27.0,-100.00,SSE,152,3.0,6.0,93,0.00,,,0.00,99.000000,,2013-03-16 23:02:00,
2013-03-16 17:13:00,29.0,27.0,-100.00,SSE,152,3.0,6.0,93,0.00,,,0.00,99.000000,,2013-03-16 23:13:00,
2013-03-16 17:42:00,29.0,27.0,-100.00,East,81,2.0,4.0,94,0.00,,,0.00,42.000000,,2013-03-16 23:42:00,
2013-03-16 17:52:00,29.0,27.0,-100.00,East,81,2.0,4.0,94,0.00,,,0.00,42.000000,,2013-03-16 23:52:00,
2013-03-16 18:02:00,29.0,27.0,-100.00,East,81,2.0,4.0,94,0.00,,,0.00,42.000000,,2013-03-17 00:02:00,
2013-03-16 18:12:00,29.0,27.0,-100.00,East,81,2.0,4.0,94,0.00,,,0.00,42.000000,,2013-03-17 00:12:00,
2013-03-16 18:43:00,28.0,27.0,-100.00,South,171,3.0,6.0,95,0.00,,,0.00,17.000000,,2013-03-17 00:43:00,
2013-03-16 18:52:00,28.0,27.0,-100.00,South,171,3.0,6.0,95,0.00,,,0.00,17.000000,,2013-03-17 00:52:00,
2013-03-16 19:02:00,28.0,27.0,-100.00,South,171,3.0,6.0,95,0.00,,,0.00,17.000000,,2013-03-17 01:02:00,
2013-03-16 19:12:00,28.0,27.0,-100.00,South,171,3.0,6.0,95,0.00,,,0.00,17.000000,,2013-03-17 01:12:00,
2013-03-16 19:43:00,28.0,27.0,-100.00,East,101,3.0,9.0,96,0.00,,,0.00,1.000000,,2013-03-17 01:43:00,
2013-03-16 19:53:00,28.0,27.0,-100.00,East,101,3.0,9.0,96,0.00,,,0.00,1.000000,,2013-03-17 01:53:00,
2013-03-16 20:02:00,28.0,27.0,-100.00,East,101,3.0,9.0,96,0.00,,,0.00,1.000000,,2013-03-17 02:02:00,
2013-03-16 20:12:00,28.0,27.0,-100.00,East,101,3.0,9.0,96,0.00,,,0.00,1.000000,,2013-03-17 02:12:00,
2013-03-16 20:43:00,28.0,27.0,-100.00,SSE,150,3.0,5.0,96,0.00,,,0.00,0.000000,,2013-03-17 02:43:00,
2013-03-16 20:53:00,28.0,27.0,-100.00,SSE,150,3.0,5.0,96,0.00,,,0.00,0.000000,,2013-03-17 02:53:00,
2013-03-16 21:02:00,28.0,27.0,-100.00,SSE,150,3.0,5.0,96,0.00,,,0.00,0.000000,,2013-03-17 03:02:00,
2013-03-16 21:12:00,28.0,27.0,-100.00,SSE,150,3.0,5.0,96,0.00,,,0.00,0.000000,,2013-03-17 03:12:00,
2013-03-16 21:43:00,28.0,27.0,-100.00,SW,225,0.0,3.0,96,0.00,,,0.00,0.000000,,2013-03-17 03:43:00,
2013-03-16 21:53:00,28.0,27.0,-100.00,SW,225,0.0,3.0,96,0.00,,,0.00,0.000000,,2013-03-17 03:53:00,
2013-03-16 22:03:00,28.0,27.0,-100.00,SW,225,0.0,3.0,96,0.00,,,0.00,0.000000,,2013-03-17 04:03:00,
2013-03-16 22:12:00,28.0,27.0,-100.00,SW,225,0.0,3.0,96,0.00,,,0.00,0.000000,,2013-03-17 04:12:00,
2013-03-16 22:43:00,29.0,28.0,-100.00,South,188,4.0,10.0,97,0.00,,,0.00,0.000000,,2013-03-17 04:43:00,
2013-03-16 22:53:00,29.0,28.0,-100.00,South,188,4.0,10.0,97,0.00,,,0.00,0.000000,,2013-03-17 04:53:00,
2013-03-16 23:02:00,29.0,28.0,-100.00,South,188,4.0,10.0,97,0.00,,,0.00,0.000000,,2013-03-17 05:02:00,
2013-03-16 23:12:00,29.0,28.0,-100.00,South,188,4.0,10.0,97,0.00,,,0.00,0.000000,,2013-03-17 05:12:00,
2013-03-16 23:42:00,29.0,28.0,-100.00,SSW,208,8.0,16.0,97,0.00,,,0.00,0.000000,,2013-03-17 05:42:00,
2013-03-16 23:52:00,29.0,28.0,-100.00,SSW,208,8.0,16.0,97,0.00,,,0.00,0.000000,,2013-03-17 05:52:00,